DW1410 Weather Reports


Display with metric or nautical units.
time (UTC)temp
F
wind
direction
speed
MPH
gust
MPH
rain 1hr
in
rain 24hr
in
rain mn
in
humidity
%
barometer
mb
20260906060007 48 302 0.0 2.0 0.00 0.00 0.00 97 1005.4
20260906054502 46 296 1.0 2.0 0.00 0.00 0.00 98 1005.2
20260906053002 45 316 1.0 3.0 0.00 0.00 0.00 98 1005.1
20260906051502 44 308 1.0 3.0 0.00 0.00 0.00 98 1005.0
20260906050014 43 292 1.0 3.0 0.00 0.00 0.00 98 1004.8
20260906044502 42 288 0.0 2.0 0.00 0.00 0.00 97 1004.8
20260906043002 42 288 0.0 0.0 0.00 0.00 0.00 97 1004.7
20260906041503 42 288 0.0 0.0 0.00 0.00 0.00 97 1004.3
20260906040005 42 288 0.0 1.0 0.00 0.00 0.00 97 1004.2
20260906034502 42 281 0.0 2.0 0.00 0.00 0.00 97 1004.1
20260906033002 43 290 0.0 2.0 0.00 0.00 0.00 97 1004.0
20260906031501 43 309 0.0 4.0 0.00 0.00 0.00 97 1003.8
20260906030005 43 292 0.0 3.0 0.00 0.00 0.00 97 1003.6
20260906024502 43 306 0.0 2.0 0.00 0.00 0.00 96 1003.6
20260906023002 43 306 1.0 5.0 0.00 0.00 0.00 97 1003.3
20260906021502 43 311 0.0 3.0 0.00 0.00 0.00 97 1003.3
20260906020005 43 284 0.0 3.0 0.00 0.00 0.00 97 1003.0
20260906014506 43 298 1.0 4.0 0.00 0.00 0.00 97 1002.8
20260906013006 43 281 0.0 2.0 0.00 0.00 0.00 96 1002.6
20260906011503 44 250 0.0 2.0 0.00 0.00 0.00 96 1002.5
20260906010007 44 296 0.0 1.0 0.00 0.00 0.00 95 1002.2
20260906004503 44 314 0.0 2.0 0.00 0.00 0.00 95 1002.3
20260906003004 45 303 0.0 3.0 0.00 0.00 0.00 95 1002.1
20260906001502 45 302 0.0 2.0 0.00 0.00 0.00 95 1001.8
20260906000005 45 355 1.0 4.0 0.00 0.00 0.00 94 1001.6
20260905234503 46 302 1.0 4.0 0.00 0.00 0.00 94 1001.4
20260905233002 46 312 0.0 3.0 0.00 0.00 0.00 93 1001.4
20260905231503 47 9 0.0 5.0 0.00 0.00 0.00 93 1001.2
20260905230005 47 283 0.0 5.0 0.00 0.00 0.00 93 1001.2
20260905224504 47 323 1.0 4.0 0.00 0.00 0.00 93 1000.9
20260905223003 48 288 0.0 2.0 0.00 0.00 0.00 92 1000.7
20260905221506 48 284 0.0 3.0 0.00 0.00 0.00 92 1000.6
20260905220002 49 302 1.0 4.0 0.00 0.00 0.00 91 1000.5
20260905214500 50 291 0.0 7.0 0.00 0.00 0.00 90 1000.2
20260905213000 50 304 0.0 2.0 0.00 0.00 0.00 91 1000.0
20260905211500 50 304 0.0 4.0 0.00 0.00 0.00 91 999.9
20260905210007 51 9 1.0 4.0 0.00 0.00 0.00 92 999.7
20260905204504 51 292 0.0 3.0 0.00 0.00 0.00 92 999.4
20260905203002 52 355 0.0 2.0 0.00 0.00 0.00 93 999.2
20260905201501 52 29 1.0 5.0 0.00 0.00 0.00 94 998.9
20260905200004 52 303 0.0 3.0 0.00 0.00 0.00 94 998.6
20260905194501 51 288 0.0 3.0 0.00 0.00 0.00 95 998.4
20260905193002 51 302 0.0 1.0 0.00 0.00 0.00 94 998.2
20260905191502 51 302 0.0 1.0 0.00 0.00 0.00 93 998.2
20260905190009 52 302 0.0 0.0 0.00 0.00 0.00 92 998.1
20260905184505 52 302 0.0 0.0 0.00 0.00 0.00 91 998.0
20260905183001 53 302 0.0 0.0 0.00 0.00 0.00 91 998.0
20260905181503 54 299 0.0 0.0 0.00 0.00 0.00 89 997.9
20260905180006 54 299 0.0 0.0 0.00 0.00 0.00 88 997.8
20260905174504 55 299 0.0 0.0 0.00 0.00 0.00 87 997.7
20260905173001 56 299 0.0 1.0 0.00 0.00 0.00 86 997.5
20260905171502 56 297 0.0 0.0 0.00 0.00 0.00 84 997.3
20260905170004 57 297 0.0 2.0 0.00 0.00 0.00 83 997.0
20260905164501 58 298 0.0 4.0 0.00 0.00 0.00 80 996.9
20260905163001 59 284 0.0 5.0 0.00 0.00 0.00 78 996.7
20260905161501 59 302 0.0 4.0 0.00 0.00 0.00 77 996.5
20260905160003 60 233 1.0 4.0 0.00 0.00 0.00 75 996.3
20260905154502 60 285 1.0 3.0 0.00 0.00 0.00 77 996.1
20260905153001 60 252 0.0 2.0 0.00 0.00 0.00 77 996.1
20260905151502 60 279 1.0 4.0 0.00 0.00 0.00 77 996.0
20260905150006 60 299 1.0 3.0 0.00 0.00 0.00 75 996.0
20260905144506 60 277 1.0 6.0 0.00 0.00 0.00 74 995.8
20260905143000 60 278 1.0 7.0 0.00 0.00 0.00 74 995.6
20260905141500 61 301 1.0 3.0 0.00 0.00 0.00 73 995.5
20260905140004 61 305 1.0 8.0 0.00 0.00 0.00 70 995.4
20260905134502 63 337 3.0 8.0 0.00 0.00 0.00 60 995.1
20260905133001 63 107 2.0 7.0 0.00 0.00 0.00 57 994.9
20260905131501 64 298 2.0 4.0 0.00 0.00 0.00 58 994.7
20260905130003 62 327 0.0 3.0 0.00 0.00 0.00 63 994.6
20260905124501 63 355 1.0 5.0 0.00 0.01 0.00 63 994.6
20260905123001 62 267 0.0 3.0 0.00 0.01 0.00 63 994.7
20260905121501 62 291 2.0 4.0 0.00 0.01 0.00 64 994.6
20260905120003 61 323 1.0 3.0 0.00 0.01 0.00 66 994.7
20260905114501 62 296 2.0 7.0 0.00 0.02 0.00 64 994.4
20260905113001 63 299 0.0 5.0 0.00 0.02 0.00 60 994.3
20260905111501 63 281 2.0 6.0 0.00 0.02 0.00 60 994.3
20260905110007 62 279 1.0 8.0 0.00 0.02 0.00 65 994.2
20260905104501 61 12 0.0 4.0 0.00 0.20 0.00 68 994.2
20260905103004 61 306 2.0 4.0 0.00 0.20 0.00 68 994.0
20260905101508 62 40 3.0 7.0 0.00 0.20 0.00 67 993.9
20260905100006 61 269 1.0 3.0 0.00 0.20 0.00 69 993.9
20260905094502 62 313 1.0 8.0 0.00 0.21 0.00 67 993.7
20260905093002 61 360 1.0 5.0 0.00 0.21 0.00 71 993.7
20260905091502 60 17 2.0 5.0 0.00 0.21 0.00 74 993.6
20260905090004 59 19 1.0 4.0 0.00 0.21 0.00 80 993.5
20260905084502 58 292 0.0 4.0 0.00 0.21 0.00 82 993.4
20260905083002 57 271 0.0 3.0 0.00 0.21 0.00 86 993.3
20260905081502 55 58 0.0 4.0 0.00 0.21 0.00 91 993.3
20260905080004 52 14 1.0 4.0 0.00 0.21 0.00 95 993.3
20260905074505 51 321 0.0 3.0 0.00 0.21 0.00 99 993.2
20260905073002 50 37 0.0 3.0 0.00 0.21 0.00 100 993.2
20260905071502 48 42 1.0 3.0 0.00 0.21 0.00 100 993.1
20260905070004 46 290 0.0 2.0 0.00 0.21 0.00 99 993.1
20260905064502 45 12 0.0 2.0 0.00 0.21 0.00 99 993.1
20260905063002 44 205 1.0 2.0 0.00 0.21 0.00 99 992.9
20260905061502 44 205 0.0 2.0 0.00 0.21 0.00 99 992.8